This is the latest recevied weather packets stored in our database for station/object AA0PB. If no packets are shown the sender has not sent any weather packets the latest 10 day(s).
| Time | Temp. | Humidity | Pressure | Rain* | Wind** | Luminosity | Snow |
|---|---|---|---|---|---|---|---|
| 1777829330 | 24.44° C | 54% | 1012.2 hPa | 0 mm | - | 526 W/m² | - |
| 1777829028 | 25° C | 54% | 1012.2 hPa | 0 mm | - | 521 W/m² | - |
| 1777828724 | 23.89° C | 56% | 1012.1 hPa | 0 mm | - | 509 W/m² | - |
| 1777828421 | 23.33° C | 56% | 1012.3 hPa | 0 mm | - | 500 W/m² | - |
| 1777828119 | 23.33° C | 56% | 1012.2 hPa | 0 mm | - | 489 W/m² | - |
| 1777827815 | 23.33° C | 56% | 1012.1 hPa | 0 mm | - | 477 W/m² | - |
| 1777827512 | 23.89° C | 56% | 1012.3 hPa | 0 mm | - | 467 W/m² | - |
| 1777827210 | 23.33° C | 55% | 1012.3 hPa | 0 mm | - | 454 W/m² | - |
| 1777826906 | 22.78° C | 57% | 1012.2 hPa | 0 mm | - | 443 W/m² | - |
| 1777826603 | 22.78° C | 59% | 1012.3 hPa | 0 mm | - | 431 W/m² | - |
| 1777826299 | 22.22° C | 61% | 1012.2 hPa | 0 mm | - | 417 W/m² | - |
| 1777825997 | 22.22° C | 62% | 1012.4 hPa | 0 mm | - | 404 W/m² | - |
| 1777825693 | 22.22° C | 62% | 1012.4 hPa | 0 mm | - | 394 W/m² | - |
| 1777825392 | 22.22° C | 61% | 1012.6 hPa | 0 mm | - | 144 W/m² | - |
| 1777825088 | 21.67° C | 62% | 1012.7 hPa | 0 mm | - | 368 W/m² | - |
| 1777824784 | 21.11° C | 63% | 1012.5 hPa | 0 mm | - | 352 W/m² | - |
| 1777824481 | 20° C | 65% | 1012.6 hPa | 0 mm | - | 341 W/m² | - |
| 1777824177 | 20.56° C | 65% | 1012.5 hPa | 0 mm | - | 328 W/m² | - |
| 1777823873 | 20.56° C | 67% | 1012.3 hPa | 0 mm | - | 316 W/m² | - |
| 1777823571 | 20.56° C | 68% | 1012.5 hPa | 0 mm | - | 291 W/m² | - |
| 1777823267 | 20.56° C | 67% | 1012.4 hPa | 0 mm | - | 288 W/m² | - |
| 1777822965 | 20.56° C | 69% | 1012.4 hPa | 0 mm | - | 273 W/m² | - |
| 1777822663 | 20° C | 69% | 1012.6 hPa | 0 mm | - | 247 W/m² | - |
| 1777822361 | 20° C | 69% | 1012.5 hPa | 0 mm | - | 247 W/m² | - |
| 1777822058 | 19.44° C | 74% | 1012.5 hPa | 0 mm | - | 202 W/m² | - |
* Rain latest hour (hover to see other rain measurements)
** Current wind speed in m/s (hover to see current wind gust speed)